Location: Le Rocchette
(44.3500°N, 7.8333°E)
Time: 15:01:26
(UTC+00:00)

Okean O Rocket - Pass Details

Date: 17 November 2019
Orbit: 622 x 646 km, 98.2° (Epoch: 06 December)

Event Time Altitude Azimuth Distance (km) Brightness Sun altitude
Rises 05:40:12 0° 6° (N) 2,914 4.9 -8.5°
Reaches altitude 10° 05:42:29 10° 359° (N) 2,002 4.0 -8.1°
Maximum altitude 05:46:34 41° 290° (WNW) 910 2.0 -7.4°
Drops below altitude 10° 05:50:37 10° 220° (SW) 1,990 4.0 -6.8°
Sets 05:52:53 0° 213° (SSW) 2,893 4.9 -6.4°
